GAOFEN-12 02

Last updated on Thu Nov 21 2024 00:02:28 GMT+0000 (Coordinated Universal Time)

1 48079U 21026A 24325.60699365 .00001103 00000+0 14990-3 0 9999 2 48079 97.9623 316.0401 0003681 33.0879 327.0563 14.80818345196890
UTC large
Height (km)
Speed (km/s)
/
Latitude / Longitude
Inclination (degrees)
Orbital Period (minutes)
Azimuth
Elevation
Range (km)
Doppler Factor

Next 0 passes for location: London (51.5072 / 0.1276)

Sorry there are no passes over London.